Weather History for KELY - October, 2010

Change the Weather History Date:

Friday, October 22, 2010

  Actual Average Record
Temperature  
Mean Temperature 51 °F 43 °F  
Max Temperature 61 °F 60 °F 81 °F (2003)
Min Temperature 40 °F 27 °F 8 °F (1985)
Degree Days  
Heating Degree Days 14 22  
Month to date heating degree days 300 400  
Since 1 July heating degree days 545 716  
Cooling Degree Days 0 0  
Month to date cooling degree days 0 0  
Year to date cooling degree days 271 218  
Moisture  
Dew Point 40 °F    
Average Humidity 65    
Maximum Humidity 92    
Minimum Humidity 37    
Precipitation  
Precipitation 0.04 in 0.03 in 0.25 in (1897)
Month to date precipitation 0.87 0.71  
Year to date precipitation 5.68 8.18  
Snow  
Snow 0.00 in 0.10 in 1.00 in (1899)
Month to date snowfall 0.0 1.9  
Since 1 July snowfall 0.0 2.3  
Since 1 September snowfall 0.0 2.3  
Snow Depth 0.00 in    
Sea Level Pressure  
Sea Level Pressure 29.85 in    
Wind  
Wind Speed 5 mph (SSE)    
Max Wind Speed 17 mph    
Max Gust Speed 25 mph    
Visibility 10 miles    
Events Rain , Thunderstorm    
T = Trace of Precipitation, MM = Missing Value Source: NWS Daily Summary

Daily Weather History Graph

Daily Weather History Graph

Search for Another Location

Airport or City:

Trip Planner

Search our weather history database for the weather conditions in past years. The results will help you decide how hot, cold, wet, or windy it might be!

Date:

Astronomy

Oct. 22, 2010 Rise Set
Actual Time 6:56 AM PDT 5:50 PM PDT
Civil Twilight 6:29 AM PDT 6:17 PM PDT
Nautical Twilight 5:57 AM PDT 6:49 PM PDT
Astronomical Twilight 5:26 AM PDT 7:20 PM PDT
Moon 5:22 PM PDT (10/22) 6:39 AM PDT (10/22)
Length of Visible Light 11h 48m
Length of Day
10h 54m
Full, 100% of the Moon is Illuminated
Oct 22
Full
Oct 22
Full
Oct 30
Last Quarter
Nov 5
New
Nov 13
First Quarter

Hourly Weather History & Observations

Time (PDT) Temp. Windchill Dew Point Humidity Pressure Visibility Wind Dir Wind Speed Gust Speed Precip Events Conditions
12:53 AM 45.0 °F - 42.1 °F 90% 29.83 in 10.0 mi Calm Calm - N/A   Overcast
1:53 AM 45.0 °F 41.2 °F 42.1 °F 90% 29.83 in 10.0 mi South 6.9 mph - N/A   Mostly Cloudy
2:53 AM 45.0 °F 40.6 °F 42.1 °F 90% 29.83 in 10.0 mi SSE 8.1 mph - 0.00 in Rain Light Rain
3:53 AM 46.0 °F 43.9 °F 43.0 °F 89% 29.83 in 10.0 mi ESE 4.6 mph - 0.00 in Rain Light Rain
4:53 AM 46.0 °F - 42.1 °F 86% 29.87 in 10.0 mi Calm Calm - 0.01 in Rain Light Rain
5:53 AM 44.1 °F 42.5 °F 42.1 °F 93% 29.88 in 10.0 mi South 3.5 mph - 0.00 in Rain Light Rain
6:53 AM 45.0 °F 42.6 °F 42.1 °F 90% 29.86 in 10.0 mi East 4.6 mph - 0.01 in   Overcast
7:53 AM 45.0 °F - 43.0 °F 93% 29.87 in 10.0 mi Calm Calm - N/A   Mostly Cloudy
8:53 AM 48.0 °F - 43.0 °F 83% 29.87 in 10.0 mi East 3.5 mph - N/A   Mostly Cloudy
9:53 AM 51.1 °F - 41.0 °F 68% 29.86 in 10.0 mi WNW 4.6 mph - N/A   Overcast
10:53 AM 54.0 °F - 39.9 °F 59% 29.85 in 10.0 mi Calm Calm - N/A   Partly Cloudy
11:53 AM 55.9 °F - 37.0 °F 49% 29.83 in 10.0 mi North 3.5 mph - N/A   Scattered Clouds
12:53 PM 57.9 °F - 37.0 °F 46% 29.80 in 10.0 mi Variable 3.5 mph - N/A   Partly Cloudy
1:53 PM 59.0 °F - 34.0 °F 39% 29.77 in 10.0 mi Calm Calm - N/A   Mostly Cloudy
2:39 PM 51.8 °F - 39.2 °F 62% 29.95 in 6.0 mi South 4.6 mph - 0.01 in Rain , Thunderstorm Light Thunderstorms and Rain
2:53 PM 53.1 °F - 39.9 °F 61% 29.79 in 10.0 mi SE 4.6 mph - 0.01 in Rain , Thunderstorm Light Thunderstorms and Rain
3:12 PM 51.8 °F - 37.4 °F 58% 29.95 in 10.0 mi SSW 11.5 mph 21.9 mph 0.01 in Rain Light Rain
3:53 PM 55.0 °F - 39.0 °F 55% 29.78 in 10.0 mi SW 10.4 mph - 0.01 in   Mostly Cloudy
4:53 PM 52.0 °F - 37.9 °F 59% 29.81 in 10.0 mi SSE 9.2 mph - N/A   Overcast
5:53 PM 48.0 °F - 39.0 °F 71% 29.84 in 10.0 mi South 8.1 mph - N/A   Scattered Clouds
6:53 PM 46.9 °F - 39.9 °F 77% 29.85 in 10.0 mi South 4.6 mph - N/A   Overcast
7:53 PM 46.0 °F 41.9 °F 39.0 °F 76% 29.86 in 10.0 mi SSE 8.1 mph - N/A   Overcast
8:53 PM 42.1 °F 40.2 °F 37.9 °F 85% 29.86 in 10.0 mi SE 3.5 mph - N/A   Scattered Clouds
9:53 PM 41.0 °F 35.8 °F 37.0 °F 86% 29.87 in 10.0 mi SSE 8.1 mph - N/A   Mostly Cloudy
10:53 PM 43.0 °F 38.8 °F 39.0 °F 86% 29.84 in 10.0 mi South 6.9 mph - N/A   Overcast
11:53 PM 44.1 °F 40.8 °F 39.0 °F 82% 29.84 in 10.0 mi South 5.8 mph - 0.00 in Rain Light Rain